When you browse on this site, cookies collect data to enhance your experience and personalize the content and advertising you see.
Visit our Privacy Policy to learn more. By continuing to use the site, you agree to this use of cookies and data.
  • In Hungary
  • List of Countries
  • For 7 days
  • Water Temperature
  • Satellite Maps
  • Weather Map
  • News
  • Weather Widgets
  • user-avatar
    Login

    Hourly Weather Ghazni

    Today, 20 April, Saturday

    Time Temperature Precipitation Wind Pressure Humidity
    00:00 +16°C° 0.1 mm 2 mps 588 mmHg 49%
    01:00 +16°C° 0.1 mm 2 mps 587 mmHg 51%
    02:00 +15°C° 0.1 mm 2 mps 587 mmHg 54%
    03:00 +14°C° 0 mm 2 mps 586 mmHg 54%
    04:00 +14°C° 0 mm 2 mps 586 mmHg 54%
    05:00 +13°C° 0 mm 2 mps 586 mmHg 54%
    06:00 +14°C° 0 mm 2 mps 586 mmHg 50%
    07:00 +15°C° 0 mm 1 mps 587 mmHg 46%
    08:00 +15°C° 0 mm 1 mps 587 mmHg 42%
    09:00 +18°C° 0 mm 1 mps 587 mmHg 38%
    10:00 +19°C° 0 mm 1 mps 588 mmHg 34%
    11:00 +20°C° 0 mm 1 mps 588 mmHg 29%
    12:00 +20°C° 0 mm 2 mps 588 mmHg 27%
    13:00 +21°C° 0 mm 3 mps 588 mmHg 25%
    14:00 +22°C° 0 mm 3 mps 588 mmHg 23%
    15:00 +22°C° 0 mm 4 mps 588 mmHg 23%
    16:00 +22°C° 0 mm 5 mps 587 mmHg 23%
    17:00 +22°C° 0 mm 6 mps 587 mmHg 22%
    18:00 +21°C° 0 mm 5 mps 587 mmHg 26%
    19:00 +20°C° 0 mm 4 mps 587 mmHg 29%
    20:00 +19°C° 0 mm 3 mps 587 mmHg 33%
    21:00 +19°C° 0 mm 3 mps 587 mmHg 36%
    22:00 +18°C° 0 mm 2 mps 587 mmHg 39%
    23:00 +17°C° 0 mm 2 mps 588 mmHg 42%

    Tomorrow, 21 April, Sunday

    Time Temperature Precipitation Wind Pressure Humidity
    00:00 +16°C° 0 mm 2 mps 587 mmHg 45%
    01:00 +15°C° 0 mm 2 mps 587 mmHg 47%
    02:00 +15°C° 0 mm 2 mps 586 mmHg 50%
    03:00 +14°C° 0 mm 2 mps 586 mmHg 52%
    04:00 +14°C° 0 mm 2 mps 586 mmHg 54%
    05:00 +13°C° 0 mm 2 mps 585 mmHg 56%
    06:00 +14°C° 0 mm 2 mps 586 mmHg 53%
    07:00 +15°C° 0 mm 1 mps 587 mmHg 49%
    08:00 +15°C° 0 mm 1 mps 587 mmHg 46%
    09:00 +18°C° 0 mm 1 mps 588 mmHg 41%
    10:00 +18°C° 0 mm 2 mps 588 mmHg 37%
    11:00 +19°C° 0 mm 2 mps 588 mmHg 32%
    12:00 +20°C° 0 mm 2 mps 588 mmHg 28%
    13:00 +21°C° 0 mm 3 mps 589 mmHg 24%
    14:00 +23°C° 0 mm 4 mps 589 mmHg 20%
    15:00 +23°C° 0 mm 4 mps 589 mmHg 19%
    16:00 +23°C° 0 mm 5 mps 588 mmHg 18%
    17:00 +23°C° 0 mm 5 mps 588 mmHg 16%
    18:00 +22°C° 0 mm 5 mps 588 mmHg 19%
    19:00 +21°C° 0 mm 5 mps 588 mmHg 22%
    20:00 +20°C° 0 mm 4 mps 587 mmHg 25%
    21:00 +19°C° 0 mm 4 mps 587 mmHg 27%
    22:00 +18°C° 0 mm 4 mps 587 mmHg 30%
    23:00 +17°C° 0 mm 3 mps 587 mmHg 32%

    Day after tomorrow, 22 April, Monday

    Time Temperature Precipitation Wind Pressure Humidity
    00:00 +17°C° 0 mm 3 mps 587 mmHg 35%
    01:00 +16°C° 0 mm 2 mps 586 mmHg 37%
    02:00 +15°C° 0 mm 1 mps 586 mmHg 40%
    03:00 +15°C° 0 mm 1 mps 586 mmHg 41%
    04:00 +14°C° 0 mm 1 mps 585 mmHg 43%
    05:00 +13°C° 0 mm 1 mps 585 mmHg 45%
    06:00 +15°C° 0 mm 1 mps 586 mmHg 41%
    07:00 +16°C° 0 mm 1 mps 587 mmHg 38%
    08:00 +18°C° 0 mm 1 mps 588 mmHg 34%
    09:00 +19°C° 0 mm 1 mps 589 mmHg 29%
    10:00 +20°C° 0 mm 1 mps 589 mmHg 23%
    11:00 +22°C° 0 mm 1 mps 590 mmHg 18%
    12:00 +23°C° 0 mm 2 mps 590 mmHg 15%
    13:00 +24°C° 0 mm 3 mps 590 mmHg 13%
    14:00 +25°C° 0 mm 4 mps 590 mmHg 11%
    15:00 +25°C° 0 mm 4 mps 590 mmHg 11%
    16:00 +25°C° 0 mm 5 mps 590 mmHg 11%
    17:00 +25°C° 0 mm 5 mps 590 mmHg 12%
    18:00 +23°C° 0 mm 5 mps 590 mmHg 16%
    19:00 +22°C° 0 mm 5 mps 590 mmHg 20%
    20:00 +21°C° 0 mm 4 mps 590 mmHg 24%
    21:00 +20°C° 0 mm 4 mps 590 mmHg 26%
    22:00 +19°C° 0 mm 3 mps 590 mmHg 29%
    23:00 +18°C° 0 mm 3 mps 590 mmHg 32%

    23 April, Tuesday

    Time Temperature Precipitation Wind Pressure Humidity
    00:00 +18°C° 0 mm 2 mps 589 mmHg 33%
    01:00 +18°C° 0 mm 2 mps 589 mmHg 35%
    02:00 +18°C° 0 mm 1 mps 588 mmHg 37%
    03:00 +18°C° 0 mm 1 mps 588 mmHg 38%
    04:00 +16°C° 0 mm 1 mps 588 mmHg 39%
    05:00 +16°C° 0 mm 1 mps 587 mmHg 40%
    06:00 +18°C° 0 mm 1 mps 588 mmHg 37%
    07:00 +18°C° 0 mm 1 mps 588 mmHg 34%
    08:00 +19°C° 0 mm 1 mps 589 mmHg 31%
    09:00 +19°C° 0 mm 3 mps 590 mmHg 29%
    10:00 +21°C° 0 mm 5 mps 590 mmHg 26%
    11:00 +22°C° 0 mm 6 mps 591 mmHg 24%
    12:00 +23°C° 0 mm 7 mps 591 mmHg 23%
    13:00 +24°C° 0 mm 8 mps 590 mmHg 22%
    14:00 +26°C° 0 mm 9 mps 590 mmHg 22%
    15:00 +24°C° 0 mm 8 mps 590 mmHg 22%
    16:00 +24°C° 0 mm 8 mps 589 mmHg 23%
    17:00 +24°C° 0 mm 8 mps 589 mmHg 24%
    18:00 +23°C° 0 mm 8 mps 589 mmHg 28%
    19:00 +22°C° 0 mm 7 mps 589 mmHg 32%
    20:00 +21°C° 0 mm 6 mps 589 mmHg 35%
    21:00 +20°C° 0 mm 5 mps 589 mmHg 38%
    22:00 +19°C° 0 mm 4 mps 589 mmHg 41%
    23:00 +19°C° 0 mm 3 mps 589 mmHg 44%

    24 April, Wednesday

    Time Temperature Precipitation Wind Pressure Humidity
    00:00 +18°C° 0.1 mm 3 mps 588 mmHg 47%
    01:00 +17°C° 0.1 mm 3 mps 588 mmHg 50%
    02:00 +17°C° 0.1 mm 3 mps 587 mmHg 52%
    03:00 +16°C° 0.9 mm 2 mps 587 mmHg 57%
    04:00 +15°C° 0.9 mm 1 mps 587 mmHg 61%
    05:00 +15°C° 0.9 mm 1 mps 587 mmHg 66%
    06:00 +15°C° 0.3 mm 1 mps 587 mmHg 66%
    07:00 +15°C° 0.3 mm 2 mps 587 mmHg 67%
    08:00 +14°C° 0.3 mm 3 mps 588 mmHg 67%
    09:00 +14°C° 0.8 mm 4 mps 587 mmHg 69%
    10:00 +14°C° 0.8 mm 5 mps 587 mmHg 72%
    11:00 +12°C° 0.8 mm 7 mps 587 mmHg 74%
    12:00 +14°C° 0.3 mm 6 mps 587 mmHg 70%
    13:00 +15°C° 0.3 mm 6 mps 587 mmHg 65%
    14:00 +15°C° 0.3 mm 5 mps 587 mmHg 61%
    15:00 +16°C° 0.8 mm 5 mps 586 mmHg 57%
    16:00 +17°C° 0.8 mm 6 mps 586 mmHg 54%
    17:00 +17°C° 0.8 mm 6 mps 586 mmHg 50%
    18:00 +17°C° 0.3 mm 4 mps 586 mmHg 52%
    19:00 +17°C° 0.3 mm 3 mps 585 mmHg 54%
    20:00 +16°C° 0.3 mm 2 mps 585 mmHg 56%
    21:00 +16°C° 0 mm 2 mps 585 mmHg 57%
    22:00 +15°C° 0 mm 2 mps 586 mmHg 59%
    23:00 +14°C° 0 mm 3 mps 586 mmHg 60%

    25 April, Thursday

    Time Temperature Precipitation Wind Pressure Humidity
    00:00 +13°C° 0 mm 3 mps 585 mmHg 61%
    01:00 +12°C° 0 mm 3 mps 585 mmHg 61%
    02:00 +12°C° 0 mm 3 mps 584 mmHg 62%
    03:00 +11°C° 0 mm 3 mps 584 mmHg 64%
    04:00 +10°C° 0 mm 3 mps 584 mmHg 66%
    05:00 +10°C° 0 mm 3 mps 584 mmHg 68%
    06:00 +10°C° 0 mm 3 mps 584 mmHg 64%
    07:00 +11°C° 0 mm 3 mps 585 mmHg 60%
    08:00 +12°C° 0 mm 4 mps 586 mmHg 55%
    09:00 +13°C° 0 mm 5 mps 586 mmHg 46%
    10:00 +15°C° 0 mm 6 mps 587 mmHg 37%
    11:00 +16°C° 0 mm 6 mps 588 mmHg 28%
    12:00 +17°C° 0 mm 7 mps 588 mmHg 26%
    13:00 +18°C° 0 mm 8 mps 588 mmHg 24%
    14:00 +18°C° 0 mm 9 mps 588 mmHg 22%
    15:00 +18°C° 0 mm 9 mps 588 mmHg 22%
    16:00 +18°C° 0 mm 9 mps 587 mmHg 22%
    17:00 +18°C° 0 mm 9 mps 587 mmHg 22%
    18:00 +16°C° 0 mm 8 mps 587 mmHg 25%
    19:00 +15°C° 0 mm 7 mps 587 mmHg 27%
    20:00 +14°C° 0 mm 6 mps 587 mmHg 30%
    21:00 +13°C° 0 mm 6 mps 587 mmHg 32%
    22:00 +13°C° 0 mm 5 mps 587 mmHg 35%
    23:00 +12°C° 0 mm 4 mps 587 mmHg 37%
    Show more